Date String (YYYY-MM-DD hh:mm:ss) UTC,Instrument flags,Ambient pressure (hPa),Sample flow (lpm),Bypass flow (lpm),Sample temperature (°C),Ambient temperature (°C),ASC tube jacket temperature (°C),LED temperature (°C),Box temperature (°C),Sample RH (%),Span deviation,Mass concentration (μg/m³),Mass concentration (μg/m³),Mass concentration (μg/m³)
DateTimeUTC,F1_M11,P_M11,Q1_M11,Q2_M11,T1_M11,T2_M11,T3_M11,T4_M11,T5_M11,U1_M11,ZSPAN_M11,X0_M11,X2_M11,X1_M11
2022-04-28 01:00:00,,0820.6,5.01,0.00,29.1,28.7,00.0,37.9,31.0,14.5,0000.0,0019.50,0007.12,0004.11
2022-04-28 01:01:00,,0820.6,4.98,0.00,29.2,28.7,00.0,37.9,31.1,14.6,-001.5,0019.60,0007.15,0004.11
2022-04-28 01:02:00,,0820.7,5.01,0.00,29.2,28.8,00.0,37.9,31.1,14.7,-001.1,0020.16,0007.23,0004.11
2022-04-28 01:03:00,,0820.7,5.00,0.00,29.2,27.8,00.0,38.0,30.9,14.6,0000.0,0019.99,0007.21,0004.12
2022-04-28 01:04:00,,0820.7,5.00,0.00,29.1,25.9,00.0,38.0,30.5,14.7,0000.0,0019.98,0007.25,0004.12
2022-04-28 01:05:00,,0820.7,5.00,0.00,29.0,25.9,00.0,37.9,30.5,14.8,0000.0,0019.60,0007.34,0004.14
2022-04-28 01:06:00,,0820.7,5.01,0.00,29.0,26.3,00.0,37.9,30.6,14.8,0000.0,0020.06,0007.41,0004.16
2022-04-28 01:07:00,,0820.7,4.99,0.00,29.0,26.7,00.0,37.9,30.7,14.8,0000.0,0021.17,0007.54,0004.21
2022-04-28 01:08:00,,0820.7,5.00,0.00,29.0,27.0,00.0,37.9,30.7,14.9,0000.0,0021.74,0007.61,0004.26
2022-04-28 01:09:00,,0820.7,5.00,0.00,29.0,27.3,00.0,37.9,30.8,14.8,0000.0,0022.12,0007.68,0004.29
2022-04-28 01:10:00,,0820.8,4.98,0.00,29.0,27.6,00.0,37.9,30.8,14.7,0000.6,0024.19,0007.82,0004.34
2022-04-28 01:11:00,,0820.8,5.02,0.00,29.0,27.8,00.0,37.9,30.8,14.7,0001.4,0023.86,0007.98,0004.39
2022-04-28 01:12:00,,0820.8,4.99,0.00,29.0,27.9,00.0,37.9,30.8,14.7,0000.3,0023.86,0008.04,0004.41
2022-04-28 01:13:00,,0820.8,5.00,0.00,29.0,28.0,00.0,37.9,30.8,14.7,0000.4,0023.54,0007.98,0004.42
2022-04-28 01:14:00,,0820.8,5.01,0.00,29.1,28.2,00.0,37.9,30.9,14.6,0000.9,0024.04,0008.11,0004.44
2022-04-28 01:15:00,,0820.9,4.98,0.00,29.1,28.2,00.0,37.9,30.9,14.6,0000.4,0024.58,0008.13,0004.44
2022-04-28 01:16:00,,0820.9,5.00,0.00,29.1,28.3,00.0,37.9,30.9,14.6,0000.3,0025.20,0008.17,0004.45
2022-04-28 01:17:00,,0820.8,5.00,0.00,29.1,28.4,00.0,37.9,30.9,14.6,0000.8,0024.64,0008.23,0004.47
2022-04-28 01:18:00,,0820.9,4.98,0.00,29.1,28.5,00.0,38.0,31.0,14.5,0001.2,0023.89,0008.21,0004.47
2022-04-28 01:19:00,,0820.8,5.01,0.00,29.1,28.5,00.0,38.0,31.0,14.5,0001.5,0023.74,0008.18,0004.46
2022-04-28 01:20:00,,0820.8,5.02,0.00,29.2,28.6,00.0,38.0,31.0,14.5,0002.3,0023.80,0008.09,0004.46
2022-04-28 01:21:00,,0820.8,4.99,0.00,29.2,28.6,00.0,38.0,31.0,14.5,0002.2,0022.32,0008.07,0004.46
2022-04-28 01:22:00,,0820.8,4.99,0.00,29.2,28.6,00.0,38.0,31.1,14.5,0000.8,0022.57,0007.99,0004.45
2022-04-28 01:23:00,,0820.9,5.02,0.00,29.2,28.7,00.0,38.0,31.1,14.4,0000.6,0022.94,0008.04,0004.45
2022-04-28 01:24:00,,0820.9,5.00,0.00,29.2,28.7,00.0,38.0,31.1,14.3,0000.5,0023.12,0008.09,0004.46
2022-04-28 01:25:00,,0821.0,4.99,0.00,29.3,28.7,00.0,38.1,31.1,14.3,-000.6,0022.94,0008.07,0004.44
2022-04-28 01:26:00,,0821.0,5.00,0.00,29.3,28.5,00.0,38.1,31.1,14.3,0000.6,0022.83,0008.04,0004.44
2022-04-28 01:27:00,,0821.0,5.01,0.00,29.2,26.4,00.0,38.1,30.6,14.3,0000.2,0022.55,0008.03,0004.44
2022-04-28 01:28:00,,0821.0,4.99,0.00,29.1,25.7,00.0,38.1,30.4,14.4,-000.3,0022.62,0008.04,0004.47
2022-04-28 01:29:00,,0821.0,5.01,0.00,29.0,26.0,00.0,38.0,30.5,14.4,-000.4,0023.55,0008.05,0004.47
2022-04-28 01:30:00,,0821.0,5.01,0.00,29.0,26.4,00.0,38.0,30.6,14.5,-001.6,0023.78,0008.11,0004.47
2022-04-28 01:31:00,,0821.0,5.00,0.00,29.0,26.8,00.0,38.0,30.7,14.5,-001.7,0023.35,0008.09,0004.45
2022-04-28 01:32:00,,0820.9,4.99,0.00,29.0,27.1,00.0,38.0,30.8,14.5,-001.7,0023.30,0008.07,0004.46
2022-04-28 01:33:00,,0821.0,5.01,0.00,29.1,27.4,00.0,38.0,30.9,14.5,0001.2,0023.12,0008.07,0004.46
2022-04-28 01:34:00,,0820.9,5.00,0.00,29.1,27.6,00.0,38.0,30.9,14.4,0003.3,0023.36,0008.11,0004.47
2022-04-28 01:35:00,,0821.0,4.99,0.00,29.1,27.8,00.0,38.0,31.0,14.4,0003.6,0023.37,0008.06,0004.47
2022-04-28 01:36:00,,0821.0,5.01,0.00,29.1,28.0,00.0,38.0,31.0,14.4,0003.7,0024.66,0008.08,0004.46
2022-04-28 01:37:00,,0821.0,4.99,0.00,29.1,28.1,00.0,38.0,31.0,14.3,0004.0,0024.67,0008.14,0004.48
2022-04-28 01:38:00,,0821.0,5.00,0.00,29.2,28.2,00.0,38.0,31.0,14.4,0004.4,0024.34,0008.03,0004.47
2022-04-28 01:39:00,,0821.0,5.00,0.00,29.2,28.3,00.0,38.0,31.0,14.4,0003.5,0023.70,0007.95,0004.44
2022-04-28 01:40:00,,0821.0,5.00,0.00,29.2,28.4,00.0,38.0,31.0,14.4,0001.1,0023.14,0008.05,0004.42
2022-04-28 01:41:00,,0821.0,5.01,0.00,29.2,28.4,00.0,38.0,31.1,14.3,0000.3,0022.80,0008.05,0004.42
2022-04-28 01:42:00,,0821.1,5.00,0.00,29.2,28.5,00.0,38.1,31.1,14.3,0003.1,0023.15,0008.11,0004.43
2022-04-28 01:43:00,,0821.1,4.98,0.00,29.3,28.5,00.0,38.1,31.1,14.3,0002.7,0024.28,0008.12,0004.42
2022-04-28 01:44:00,,0821.1,5.01,0.00,29.3,28.6,00.0,38.1,31.1,14.4,0001.3,0024.55,0008.17,0004.42
2022-04-28 01:45:00,,0821.1,4.99,0.00,29.3,28.6,00.0,38.1,31.2,14.3,0001.0,0025.24,0008.20,0004.41
2022-04-28 01:46:00,,0821.1,4.99,0.00,29.3,28.7,00.0,38.1,31.2,14.3,0001.0,0026.13,0008.29,0004.41
2022-04-28 01:47:00,,0821.1,5.02,0.00,29.3,28.7,00.0,38.1,31.2,14.3,0000.8,0025.28,0008.21,0004.40
2022-04-28 01:48:00,,0821.0,4.99,0.00,29.3,28.7,00.0,38.2,31.2,14.2,0001.1,0025.19,0008.17,0004.38
2022-04-28 01:49:00,,0821.0,4.99,0.00,29.4,28.8,00.0,38.2,31.2,14.1,0001.0,0024.96,0008.24,0004.39
2022-04-28 01:50:00,,0820.9,4.99,0.00,29.4,28.8,00.0,38.2,31.2,14.1,0001.1,0025.53,0008.23,0004.38
2022-04-28 01:51:00,,0821.0,5.01,0.00,29.4,28.8,00.0,38.2,31.3,14.1,0000.6,0025.14,0008.14,0004.39
2022-04-28 01:52:00,,0820.9,5.00,0.00,29.4,28.8,00.0,38.2,31.3,14.0,-000.1,0025.05,0008.16,0004.39
2022-04-28 01:53:00,,0820.8,4.99,0.00,29.4,28.3,00.0,38.2,31.1,14.0,0000.4,0025.39,0008.21,0004.39
2022-04-28 01:54:00,,0820.8,5.01,0.00,29.3,26.0,00.0,38.2,30.7,14.1,0000.3,0024.28,0008.23,0004.41
2022-04-28 01:55:00,,0820.8,5.00,0.00,29.2,25.8,00.0,38.2,30.6,14.2,0000.9,0023.64,0008.16,0004.42
2022-04-28 01:56:00,,0820.7,5.00,0.00,29.2,26.1,00.0,38.2,30.7,14.2,0001.5,0024.77,0008.16,0004.43
2022-04-28 01:57:00,,0820.7,5.00,0.00,29.1,26.6,00.0,38.1,30.8,14.2,0000.6,0023.96,0008.08,0004.44
2022-04-28 01:58:00,,0820.7,4.99,0.00,29.2,27.0,00.0,38.1,30.9,14.3,0000.0,0023.17,0008.09,0004.43
2022-04-28 01:59:00,,0820.7,5.00,0.00,29.2,27.3,00.0,38.1,30.9,14.2,0000.0,0023.79,0008.15,0004.44
